owner,sensor,date,latitude,longitude,vertical_datum,wind_speed,wind_to_direction,wind_speed_of_gust,qcFlag 
DISL,ioos:station:DISL:PPTA:1,2012-05-01T00:00:00Z,30.2791,-87.5561,0.0,2.26,190.4,-9999.0,'1111122,1111122,1111122' 
DISL,ioos:station:DISL:PPTA:1,2012-05-01T00:30:00Z,30.2791,-87.5561,0.0,2.18,189.6,-9999.0,'1111122,1111122,1111122' 
DISL,ioos:station:DISL:PPTA:1,2012-05-01T01:00:00Z,30.2791,-87.5561,0.0,1.59,190.5,-9999.0,'1111122,1111122,1111122' 
DISL,ioos:station:DISL:PPTA:1,2012-05-01T01:30:00Z,30.2791,-87.5561,0.0,0.33,207.1,-9999.0,'1111122,1111122,1111122' 
DISL,ioos:station:DISL:PPTA:1,2012-05-01T02:00:00Z,30.2791,-87.5561,0.0,1.07,192.4,-9999.0,'1111122,1111122,1111122' 
DISL,ioos:station:DISL:PPTA:1,2012-05-01T02:30:00Z,30.2791,-87.5561,0.0,2.19,177.5,-9999.0,'1111122,1111122,1111122' 
DISL,ioos:station:DISL:PPTA:1,2012-05-01T03:00:00Z,30.2791,-87.5561,0.0,1.65,174.1,-9999.0,'1111122,1111122,1111122' 
DISL,ioos:station:DISL:PPTA:1,2012-05-01T03:30:00Z,30.2791,-87.5561,0.0,1.41,188.0,-9999.0,'1111122,1111122,1111122' 
DISL,ioos:station:DISL:PPTA:1,2012-05-01T04:00:00Z,30.2791,-87.5561,0.0,0.93,187.8,-9999.0,'1111122,1111122,1111122' 
DISL,ioos:station:DISL:PPTA:1,2012-05-01T04:30:00Z,30.2791,-87.5561,0.0,0.18,271.2,-9999.0,'1111122,1111122,1111122' 
DISL,ioos:station:DISL:PPTA:1,2012-05-01T05:00:00Z,30.2791,-87.5561,0.0,0.39,324.0,-9999.0,'1111122,1111122,1111122' 
DISL,ioos:station:DISL:PPTA:1,2012-05-01T05:30:00Z,30.2791,-87.5561,0.0,0.01,7.594,-9999.0,'1111122,1111122,1111122' 
DISL,ioos:station:DISL:PPTA:1,2012-05-01T06:00:00Z,30.2791,-87.5561,0.0,0.0,0.0,-9999.0,'1114422,1114422,1111122' 
DISL,ioos:station:DISL:PPTA:1,2012-05-01T06:30:00Z,30.2791,-87.5561,0.0,0.8,287.0,-9999.0,'1111122,1111122,1111122' 
DISL,ioos:station:DISL:PPTA:1,2012-05-01T07:00:00Z,30.2791,-87.5561,0.0,0.07,326.1,-9999.0,'1111122,1111122,1111122' 
DISL,ioos:station:DISL:PPTA:1,2012-05-01T07:30:00Z,30.2791,-87.5561,0.0,0.61,51.55,-9999.0,'1111122,1111122,1111122' 
DISL,ioos:station:DISL:PPTA:1,2012-05-01T08:00:00Z,30.2791,-87.5561,0.0,0.33,317.3,-9999.0,'1111122,1111122,1111122' 
DISL,ioos:station:DISL:PPTA:1,2012-05-01T08:30:00Z,30.2791,-87.5561,0.0,0.21,67.95,-9999.0,'1111122,1111122,1111122' 
DISL,ioos:station:DISL:PPTA:1,2012-05-01T09:00:00Z,30.2791,-87.5561,0.0,1.74,81.5,-9999.0,'1111122,1111122,1111122' 
DISL,ioos:station:DISL:PPTA:1,2012-05-01T09:30:00Z,30.2791,-87.5561,0.0,2.38,70.66,-9999.0,'1111122,1111122,1111122' 
DISL,ioos:station:DISL:PPTA:1,2012-05-01T10:00:00Z,30.2791,-87.5561,0.0,1.83,54.16,-9999.0,'1111122,1111122,1111122' 
DISL,ioos:station:DISL:PPTA:1,2012-05-01T10:30:00Z,30.2791,-87.5561,0.0,2.64,72.76,-9999.0,'1111122,1111122,1111122' 
DISL,ioos:station:DISL:PPTA:1,2012-05-01T11:00:00Z,30.2791,-87.5561,0.0,2.38,52.72,-9999.0,'1111122,1111122,1111122' 
DISL,ioos:station:DISL:PPTA:1,2012-05-01T11:30:00Z,30.2791,-87.5561,0.0,2.49,84.8,-9999.0,'1111122,1111122,1111122' 
DISL,ioos:station:DISL:PPTA:1,2012-05-01T12:00:00Z,30.2791,-87.5561,0.0,2.77,105.8,-9999.0,'1111122,1111122,1111122' 
DISL,ioos:station:DISL:PPTA:1,2012-05-01T12:30:00Z,30.2791,-87.5561,0.0,3.3,107.5,-9999.0,'1111122,1111122,1111122' 
DISL,ioos:station:DISL:PPTA:1,2012-05-01T13:00:00Z,30.2791,-87.5561,0.0,4.08,114.4,-9999.0,'1111122,1111122,1111122' 
DISL,ioos:station:DISL:PPTA:1,2012-05-01T13:30:00Z,30.2791,-87.5561,0.0,2.85,88.1,-9999.0,'1111122,1111122,1111122' 
DISL,ioos:station:DISL:PPTA:1,2012-05-01T14:00:00Z,30.2791,-87.5561,0.0,0.26,96.4,-9999.0,'1111122,1111122,1111122' 
DISL,ioos:station:DISL:PPTA:1,2012-05-01T14:30:00Z,30.2791,-87.5561,0.0,1.11,98.4,-9999.0,'1111122,1111122,1111122' 
DISL,ioos:station:DISL:PPTA:1,2012-05-01T15:00:00Z,30.2791,-87.5561,0.0,0.15,96.5,-9999.0,'1111122,1111122,1111122' 
DISL,ioos:station:DISL:PPTA:1,2012-05-01T15:30:00Z,30.2791,-87.5561,0.0,6.07,85.5,-9999.0,'1111122,1111122,1111122' 
DISL,ioos:station:DISL:PPTA:1,2012-05-01T16:00:00Z,30.2791,-87.5561,0.0,2.39,90.1,-9999.0,'1111122,1111122,1111122' 
DISL,ioos:station:DISL:PPTA:1,2012-05-01T16:30:00Z,30.2791,-87.5561,0.0,4.28,113.8,-9999.0,'1111122,1111122,1111122' 
DISL,ioos:station:DISL:PPTA:1,2012-05-01T17:00:00Z,30.2791,-87.5561,0.0,1.61,112.4,-9999.0,'1111122,1111122,1111122' 
DISL,ioos:station:DISL:PPTA:1,2012-05-01T17:30:00Z,30.2791,-87.5561,0.0,5.31,116.3,-9999.0,'1111122,1111122,1111122' 
DISL,ioos:station:DISL:PPTA:1,2012-05-01T18:00:00Z,30.2791,-87.5561,0.0,0.9,108.3,-9999.0,'1111122,1111122,1111122' 
DISL,ioos:station:DISL:PPTA:1,2012-05-01T18:30:00Z,30.2791,-87.5561,0.0,0.02,98.1,-9999.0,'1111122,1111122,1111122' 
DISL,ioos:station:DISL:PPTA:1,2012-05-01T19:00:00Z,30.2791,-87.5561,0.0,0.3,101.5,-9999.0,'1111122,1111122,1111122' 
DISL,ioos:station:DISL:PPTA:1,2012-05-01T19:30:00Z,30.2791,-87.5561,0.0,4.58,117.5,-9999.0,'1111122,1111122,1111122' 
DISL,ioos:station:DISL:PPTA:1,2012-05-01T20:00:00Z,30.2791,-87.5561,0.0,3.83,117.4,-9999.0,'1111122,1111122,1111122' 
DISL,ioos:station:DISL:PPTA:1,2012-05-01T20:30:00Z,30.2791,-87.5561,0.0,0.86,106.1,-9999.0,'1111122,1111122,1111122' 
DISL,ioos:station:DISL:PPTA:1,2012-05-01T21:00:00Z,30.2791,-87.5561,0.0,0.16,126.8,-9999.0,'1111122,1111122,1111122' 
DISL,ioos:station:DISL:PPTA:1,2012-05-01T21:30:00Z,30.2791,-87.5561,0.0,0.0,0.0,-9999.0,'1114422,1114422,1111122' 
DISL,ioos:station:DISL:PPTA:1,2012-05-01T22:00:00Z,30.2791,-87.5561,0.0,0.0,0.0,-9999.0,'1114422,1114422,1111122' 
DISL,ioos:station:DISL:PPTA:1,2012-05-01T22:30:00Z,30.2791,-87.5561,0.0,0.0,0.0,-9999.0,'1114422,1114422,1111122' 
DISL,ioos:station:DISL:PPTA:1,2012-05-01T23:00:00Z,30.2791,-87.5561,0.0,2.81,119.9,-9999.0,'1111122,1111122,1111122' 
DISL,ioos:station:DISL:PPTA:1,2012-05-01T23:30:00Z,30.2791,-87.5561,0.0,3.55,127.4,-9999.0,'1111122,1111122,1111122' 
DISL,ioos:station:DISL:PPTA:1,2012-05-02T00:00:00Z,30.2791,-87.5561,0.0,5.83,124.1,-9999.0,'1111122,1111122,1111122' 
DISL,ioos:station:DISL:PPTA:1,2012-05-02T00:30:00Z,30.2791,-87.5561,0.0,4.83,118.5,-9999.0,'1111122,1111122,1111122' 
DISL,ioos:station:DISL:PPTA:1,2012-05-02T01:00:00Z,30.2791,-87.5561,0.0,4.38,120.7,-9999.0,'1111122,1111122,1111122' 
DISL,ioos:station:DISL:PPTA:1,2012-05-02T01:30:00Z,30.2791,-87.5561,0.0,4.19,119.5,-9999.0,'1111122,1111122,1111122' 
DISL,ioos:station:DISL:PPTA:1,2012-05-02T02:00:00Z,30.2791,-87.5561,0.0,4.23,123.8,-9999.0,'1111122,1111122,1111122' 
DISL,ioos:station:DISL:PPTA:1,2012-05-02T02:30:00Z,30.2791,-87.5561,0.0,3.34,132.0,-9999.0,'1111122,1111122,1111122' 
DISL,ioos:station:DISL:PPTA:1,2012-05-02T03:00:00Z,30.2791,-87.5561,0.0,3.41,131.0,-9999.0,'1111122,1111122,1111122' 
DISL,ioos:station:DISL:PPTA:1,2012-05-02T03:30:00Z,30.2791,-87.5561,0.0,2.99,119.2,-9999.0,'1111122,1111122,1111122' 
DISL,ioos:station:DISL:PPTA:1,2012-05-02T04:00:00Z,30.2791,-87.5561,0.0,3.1,119.3,-9999.0,'1111122,1111122,1111122' 
DISL,ioos:station:DISL:PPTA:1,2012-05-02T04:30:00Z,30.2791,-87.5561,0.0,3.52,121.3,-9999.0,'1111122,1111122,1111122' 
DISL,ioos:station:DISL:PPTA:1,2012-05-02T05:00:00Z,30.2791,-87.5561,0.0,3.29,118.4,-9999.0,'1111122,1111122,1111122' 
DISL,ioos:station:DISL:PPTA:1,2012-05-02T05:30:00Z,30.2791,-87.5561,0.0,3.64,114.4,-9999.0,'1111122,1111122,1111122' 
DISL,ioos:station:DISL:PPTA:1,2012-05-02T06:00:00Z,30.2791,-87.5561,0.0,3.87,121.8,-9999.0,'1111122,1111122,1111122' 
DISL,ioos:station:DISL:PPTA:1,2012-05-02T06:30:00Z,30.2791,-87.5561,0.0,4.17,119.6,-9999.0,'1111122,1111122,1111122' 
DISL,ioos:station:DISL:PPTA:1,2012-05-02T07:00:00Z,30.2791,-87.5561,0.0,4.18,125.6,-9999.0,'1111122,1111122,1111122' 
DISL,ioos:station:DISL:PPTA:1,2012-05-02T07:30:00Z,30.2791,-87.5561,0.0,3.96,126.9,-9999.0,'1111122,1111122,1111122' 
DISL,ioos:station:DISL:PPTA:1,2012-05-02T08:00:00Z,30.2791,-87.5561,0.0,5.92,124.2,-9999.0,'1111122,1111122,1111122' 
DISL,ioos:station:DISL:PPTA:1,2012-05-02T08:30:00Z,30.2791,-87.5561,0.0,5.71,125.5,-9999.0,'1111122,1111122,1111122' 
DISL,ioos:station:DISL:PPTA:1,2012-05-02T09:00:00Z,30.2791,-87.5561,0.0,6.91,124.3,-9999.0,'1111122,1111122,1111122' 
DISL,ioos:station:DISL:PPTA:1,2012-05-02T09:30:00Z,30.2791,-87.5561,0.0,6.47,126.1,-9999.0,'1111122,1111122,1111122' 
DISL,ioos:station:DISL:PPTA:1,2012-05-02T10:00:00Z,30.2791,-87.5561,0.0,6.45,123.9,-9999.0,'1111122,1111122,1111122' 
DISL,ioos:station:DISL:PPTA:1,2012-05-02T10:30:00Z,30.2791,-87.5561,0.0,5.98,125.9,-9999.0,'1111122,1111122,1111122' 
DISL,ioos:station:DISL:PPTA:1,2012-05-02T11:00:00Z,30.2791,-87.5561,0.0,6.22,126.5,-9999.0,'1111122,1111122,1111122' 
DISL,ioos:station:DISL:PPTA:1,2012-05-02T11:30:00Z,30.2791,-87.5561,0.0,6.8,124.3,-9999.0,'1111122,1111122,1111122' 
DISL,ioos:station:DISL:PPTA:1,2012-05-02T12:00:00Z,30.2791,-87.5561,0.0,4.09,127.6,-9999.0,'1111122,1111122,1111122' 
DISL,ioos:station:DISL:PPTA:1,2012-05-02T12:30:00Z,30.2791,-87.5561,0.0,6.32,125.9,-9999.0,'1111122,1111122,1111122' 
DISL,ioos:station:DISL:PPTA:1,2012-05-02T13:00:00Z,30.2791,-87.5561,0.0,6.15,118.8,-9999.0,'1111122,1111122,1111122' 
DISL,ioos:station:DISL:PPTA:1,2012-05-02T13:30:00Z,30.2791,-87.5561,0.0,6.47,121.1,-9999.0,'1111122,1111122,1111122' 
DISL,ioos:station:DISL:PPTA:1,2012-05-02T14:00:00Z,30.2791,-87.5561,0.0,6.62,120.9,-9999.0,'1111122,1111122,1111122' 
DISL,ioos:station:DISL:PPTA:1,2012-05-02T14:30:00Z,30.2791,-87.5561,0.0,6.18,117.1,-9999.0,'1111122,1111122,1111122' 
DISL,ioos:station:DISL:PPTA:1,2012-05-02T15:00:00Z,30.2791,-87.5561,0.0,6.03,112.4,-9999.0,'1111122,1111122,1111122' 
DISL,ioos:station:DISL:PPTA:1,2012-05-02T15:30:00Z,30.2791,-87.5561,0.0,6.53,112.9,-9999.0,'1111122,1111122,1111122' 
DISL,ioos:station:DISL:PPTA:1,2012-05-02T16:00:00Z,30.2791,-87.5561,0.0,7.5,117.3,-9999.0,'1111122,1111122,1111122' 
DISL,ioos:station:DISL:PPTA:1,2012-05-02T16:30:00Z,30.2791,-87.5561,0.0,6.71,115.3,-9999.0,'1111122,1111122,1111122' 
DISL,ioos:station:DISL:PPTA:1,2012-05-02T17:00:00Z,30.2791,-87.5561,0.0,7.1,105.9,-9999.0,'1111122,1111122,1111122' 
DISL,ioos:station:DISL:PPTA:1,2012-05-02T17:30:00Z,30.2791,-87.5561,0.0,7.03,105.9,-9999.0,'1111122,1111122,1111122' 
DISL,ioos:station:DISL:PPTA:1,2012-05-02T18:00:00Z,30.2791,-87.5561,0.0,7.02,105.5,-9999.0,'1111122,1111122,1111122' 
DISL,ioos:station:DISL:PPTA:1,2012-05-02T18:30:00Z,30.2791,-87.5561,0.0,7.65,105.5,-9999.0,'1111122,1111122,1111122' 
DISL,ioos:station:DISL:PPTA:1,2012-05-02T19:00:00Z,30.2791,-87.5561,0.0,1.31,106.5,-9999.0,'1111122,1111122,1111122' 
DISL,ioos:station:DISL:PPTA:1,2012-05-02T19:30:00Z,30.2791,-87.5561,0.0,7.6,106.6,-9999.0,'1111122,1111122,1111122' 
DISL,ioos:station:DISL:PPTA:1,2012-05-02T20:00:00Z,30.2791,-87.5561,0.0,6.65,104.7,-9999.0,'1111122,1111122,1111122' 
DISL,ioos:station:DISL:PPTA:1,2012-05-02T20:30:00Z,30.2791,-87.5561,0.0,7.75,111.9,-9999.0,'1111122,1111122,1111122' 
DISL,ioos:station:DISL:PPTA:1,2012-05-02T21:00:00Z,30.2791,-87.5561,0.0,7.25,111.2,-9999.0,'1111122,1111122,1111122' 
DISL,ioos:station:DISL:PPTA:1,2012-05-02T21:30:00Z,30.2791,-87.5561,0.0,7.45,108.6,-9999.0,'1111122,1111122,1111122' 
DISL,ioos:station:DISL:PPTA:1,2012-05-02T22:00:00Z,30.2791,-87.5561,0.0,7.89,99.1,-9999.0,'1111122,1111122,1111122' 
DISL,ioos:station:DISL:PPTA:1,2012-05-02T22:30:00Z,30.2791,-87.5561,0.0,7.04,94.2,-9999.0,'1111122,1111122,1111122' 
DISL,ioos:station:DISL:PPTA:1,2012-05-02T23:00:00Z,30.2791,-87.5561,0.0,6.79,93.3,-9999.0,'1111122,1111122,1111122' 
DISL,ioos:station:DISL:PPTA:1,2012-05-02T23:30:00Z,30.2791,-87.5561,0.0,5.58,82.0,-9999.0,'1111122,1111122,1111122' 
DISL,ioos:station:DISL:PPTA:1,2012-05-03T00:00:00Z,30.2791,-87.5561,0.0,6.11,78.13,-9999.0,'1111122,1111122,1111122' 
DISL,ioos:station:DISL:PPTA:1,2012-05-03T00:30:00Z,30.2791,-87.5561,0.0,5.63,86.7,-9999.0,'1111122,1111122,1111122' 
DISL,ioos:station:DISL:PPTA:1,2012-05-03T01:00:00Z,30.2791,-87.5561,0.0,7.04,86.9,-9999.0,'1111122,1111122,1111122' 
DISL,ioos:station:DISL:PPTA:1,2012-05-03T01:30:00Z,30.2791,-87.5561,0.0,6.54,90.0,-9999.0,'1111122,1111122,1111122' 
DISL,ioos:station:DISL:PPTA:1,2012-05-03T02:00:00Z,30.2791,-87.5561,0.0,5.87,90.3,-9999.0,'1111122,1111122,1111122' 
DISL,ioos:station:DISL:PPTA:1,2012-05-03T02:30:00Z,30.2791,-87.5561,0.0,4.69,89.5,-9999.0,'1111122,1111122,1111122' 
DISL,ioos:station:DISL:PPTA:1,2012-05-03T03:00:00Z,30.2791,-87.5561,0.0,4.56,70.84,-9999.0,'1111122,1111122,1111122' 
DISL,ioos:station:DISL:PPTA:1,2012-05-03T03:30:00Z,30.2791,-87.5561,0.0,5.22,60.68,-9999.0,'1111122,1111122,1111122' 
DISL,ioos:station:DISL:PPTA:1,2012-05-03T04:00:00Z,30.2791,-87.5561,0.0,3.41,69.34,-9999.0,'1111122,1111122,1111122' 
DISL,ioos:station:DISL:PPTA:1,2012-05-03T04:30:00Z,30.2791,-87.5561,0.0,4.05,61.54,-9999.0,'1111122,1111122,1111122' 
DISL,ioos:station:DISL:PPTA:1,2012-05-03T05:00:00Z,30.2791,-87.5561,0.0,2.33,33.9,-9999.0,'1111122,1111122,1111122' 
DISL,ioos:station:DISL:PPTA:1,2012-05-03T05:30:00Z,30.2791,-87.5561,0.0,1.98,338.7,-9999.0,'1111122,1111122,1111122' 
DISL,ioos:station:DISL:PPTA:1,2012-05-03T06:00:00Z,30.2791,-87.5561,0.0,1.99,344.5,-9999.0,'1111122,1111122,1111122' 
DISL,ioos:station:DISL:PPTA:1,2012-05-03T06:30:00Z,30.2791,-87.5561,0.0,3.3,354.2,-9999.0,'1111122,1111122,1111122' 
DISL,ioos:station:DISL:PPTA:1,2012-05-03T07:00:00Z,30.2791,-87.5561,0.0,2.6,52.61,-9999.0,'1111122,1111122,1111122' 
DISL,ioos:station:DISL:PPTA:1,2012-05-03T07:30:00Z,30.2791,-87.5561,0.0,1.66,54.37,-9999.0,'1111122,1111122,1111122' 
DISL,ioos:station:DISL:PPTA:1,2012-05-03T08:00:00Z,30.2791,-87.5561,0.0,3.13,48.76,-9999.0,'1111122,1111122,1111122' 
DISL,ioos:station:DISL:PPTA:1,2012-05-03T08:30:00Z,30.2791,-87.5561,0.0,3.09,41.32,-9999.0,'1111122,1111122,1111122' 
DISL,ioos:station:DISL:PPTA:1,2012-05-03T09:00:00Z,30.2791,-87.5561,0.0,2.65,61.97,-9999.0,'1111122,1111122,1111122' 
DISL,ioos:station:DISL:PPTA:1,2012-05-03T09:30:00Z,30.2791,-87.5561,0.0,3.69,61.92,-9999.0,'1111122,1111122,1111122' 
DISL,ioos:station:DISL:PPTA:1,2012-05-03T10:00:00Z,30.2791,-87.5561,0.0,5.33,62.97,-9999.0,'1111122,1111122,1111122' 
DISL,ioos:station:DISL:PPTA:1,2012-05-03T10:30:00Z,30.2791,-87.5561,0.0,4.0,79.63,-9999.0,'1111122,1111122,1111122' 
DISL,ioos:station:DISL:PPTA:1,2012-05-03T11:00:00Z,30.2791,-87.5561,0.0,4.46,81.7,-9999.0,'1111122,1111122,1111122' 
DISL,ioos:station:DISL:PPTA:1,2012-05-03T11:30:00Z,30.2791,-87.5561,0.0,4.94,85.2,-9999.0,'1111122,1111122,1111122' 
DISL,ioos:station:DISL:PPTA:1,2012-05-03T12:00:00Z,30.2791,-87.5561,0.0,4.32,87.0,-9999.0,'1111122,1111122,1111122' 
DISL,ioos:station:DISL:PPTA:1,2012-05-03T12:30:00Z,30.2791,-87.5561,0.0,5.95,95.2,-9999.0,'1111122,1111122,1111122' 
DISL,ioos:station:DISL:PPTA:1,2012-05-03T13:00:00Z,30.2791,-87.5561,0.0,5.8,98.7,-9999.0,'1111122,1111122,1111122' 
DISL,ioos:station:DISL:PPTA:1,2012-05-03T13:30:00Z,30.2791,-87.5561,0.0,7.72,118.0,-9999.0,'1111122,1111122,1111122' 
DISL,ioos:station:DISL:PPTA:1,2012-05-03T14:00:00Z,30.2791,-87.5561,0.0,4.79,124.5,-9999.0,'1111122,1111122,1111122' 
DISL,ioos:station:DISL:PPTA:1,2012-05-03T14:30:00Z,30.2791,-87.5561,0.0,5.11,103.5,-9999.0,'1111122,1111122,1111122' 
DISL,ioos:station:DISL:PPTA:1,2012-05-03T15:00:00Z,30.2791,-87.5561,0.0,5.39,95.7,-9999.0,'1111122,1111122,1111122' 
DISL,ioos:station:DISL:PPTA:1,2012-05-03T15:30:00Z,30.2791,-87.5561,0.0,4.95,88.0,-9999.0,'1111122,1111122,1111122' 
DISL,ioos:station:DISL:PPTA:1,2012-05-03T16:00:00Z,30.2791,-87.5561,0.0,4.81,86.7,-9999.0,'1111122,1111122,1111122' 
DISL,ioos:station:DISL:PPTA:1,2012-05-03T16:30:00Z,30.2791,-87.5561,0.0,4.59,80.2,-9999.0,'1111122,1111122,1111122' 
DISL,ioos:station:DISL:PPTA:1,2012-05-03T17:00:00Z,30.2791,-87.5561,0.0,5.0,84.0,-9999.0,'1111122,1111122,1111122' 
DISL,ioos:station:DISL:PPTA:1,2012-05-03T17:30:00Z,30.2791,-87.5561,0.0,4.85,89.4,-9999.0,'1111122,1111122,1111122' 
DISL,ioos:station:DISL:PPTA:1,2012-05-03T18:00:00Z,30.2791,-87.5561,0.0,4.95,87.7,-9999.0,'1111122,1111122,1111122' 
DISL,ioos:station:DISL:PPTA:1,2012-05-03T18:30:00Z,30.2791,-87.5561,0.0,2.55,82.5,-9999.0,'1111122,1111122,1111122' 
DISL,ioos:station:DISL:PPTA:1,2012-05-03T19:00:00Z,30.2791,-87.5561,0.0,2.56,89.0,-9999.0,'1111122,1111122,1111122' 
DISL,ioos:station:DISL:PPTA:1,2012-05-03T19:30:00Z,30.2791,-87.5561,0.0,5.54,93.1,-9999.0,'1111122,1111122,1111122' 
DISL,ioos:station:DISL:PPTA:1,2012-05-03T20:00:00Z,30.2791,-87.5561,0.0,5.65,88.3,-9999.0,'1111122,1111122,1111122' 
DISL,ioos:station:DISL:PPTA:1,2012-05-03T20:30:00Z,30.2791,-87.5561,0.0,4.92,91.1,-9999.0,'1111122,1111122,1111122' 
DISL,ioos:station:DISL:PPTA:1,2012-05-03T21:00:00Z,30.2791,-87.5561,0.0,3.93,90.2,-9999.0,'1111122,1111122,1111122' 
DISL,ioos:station:DISL:PPTA:1,2012-05-03T21:30:00Z,30.2791,-87.5561,0.0,3.95,94.8,-9999.0,'1111122,1111122,1111122' 
DISL,ioos:station:DISL:PPTA:1,2012-05-03T22:00:00Z,30.2791,-87.5561,0.0,4.35,91.4,-9999.0,'1111122,1111122,1111122' 
DISL,ioos:station:DISL:PPTA:1,2012-05-03T22:30:00Z,30.2791,-87.5561,0.0,2.13,90.6,-9999.0,'1111122,1111122,1111122' 
DISL,ioos:station:DISL:PPTA:1,2012-05-03T23:00:00Z,30.2791,-87.5561,0.0,4.91,97.5,-9999.0,'1111122,1111122,1111122' 
DISL,ioos:station:DISL:PPTA:1,2012-05-03T23:30:00Z,30.2791,-87.5561,0.0,3.33,91.3,-9999.0,'1111122,1111122,1111122' 
DISL,ioos:station:DISL:PPTA:1,2012-05-04T00:00:00Z,30.2791,-87.5561,0.0,0.08,88.6,-9999.0,'1111122,1111122,1111122' 
DISL,ioos:station:DISL:PPTA:1,2012-05-04T00:30:00Z,30.2791,-87.5561,0.0,6.25,92.9,-9999.0,'1111122,1111122,1111122' 
DISL,ioos:station:DISL:PPTA:1,2012-05-04T01:00:00Z,30.2791,-87.5561,0.0,5.01,92.0,-9999.0,'1111122,1111122,1111122' 
DISL,ioos:station:DISL:PPTA:1,2012-05-04T01:30:00Z,30.2791,-87.5561,0.0,5.4,93.3,-9999.0,'1111122,1111122,1111122' 
DISL,ioos:station:DISL:PPTA:1,2012-05-04T02:00:00Z,30.2791,-87.5561,0.0,5.17,90.0,-9999.0,'1111122,1111122,1111122' 
DISL,ioos:station:DISL:PPTA:1,2012-05-04T02:30:00Z,30.2791,-87.5561,0.0,3.91,88.8,-9999.0,'1111122,1111122,1111122' 
DISL,ioos:station:DISL:PPTA:1,2012-05-04T03:00:00Z,30.2791,-87.5561,0.0,4.35,87.9,-9999.0,'1111122,1111122,1111122' 
DISL,ioos:station:DISL:PPTA:1,2012-05-04T03:30:00Z,30.2791,-87.5561,0.0,3.56,88.5,-9999.0,'1111122,1111122,1111122' 
DISL,ioos:station:DISL:PPTA:1,2012-05-04T04:00:00Z,30.2791,-87.5561,0.0,5.53,93.6,-9999.0,'1111122,1111122,1111122' 
DISL,ioos:station:DISL:PPTA:1,2012-05-04T04:30:00Z,30.2791,-87.5561,0.0,5.23,99.2,-9999.0,'1111122,1111122,1111122' 
DISL,ioos:station:DISL:PPTA:1,2012-05-04T05:00:00Z,30.2791,-87.5561,0.0,4.85,110.7,-9999.0,'1111122,1111122,1111122' 
DISL,ioos:station:DISL:PPTA:1,2012-05-04T05:30:00Z,30.2791,-87.5561,0.0,4.16,110.1,-9999.0,'1111122,1111122,1111122' 
DISL,ioos:station:DISL:PPTA:1,2012-05-04T06:00:00Z,30.2791,-87.5561,0.0,4.07,108.5,-9999.0,'1111122,1111122,1111122' 
DISL,ioos:station:DISL:PPTA:1,2012-05-04T06:30:00Z,30.2791,-87.5561,0.0,4.78,114.0,-9999.0,'1111122,1111122,1111122' 
DISL,ioos:station:DISL:PPTA:1,2012-05-04T07:00:00Z,30.2791,-87.5561,0.0,4.25,113.0,-9999.0,'1111122,1111122,1111122' 
DISL,ioos:station:DISL:PPTA:1,2012-05-04T07:30:00Z,30.2791,-87.5561,0.0,3.39,109.0,-9999.0,'1111122,1111122,1111122' 
DISL,ioos:station:DISL:PPTA:1,2012-05-04T08:00:00Z,30.2791,-87.5561,0.0,3.05,122.2,-9999.0,'1111122,1111122,1111122' 
DISL,ioos:station:DISL:PPTA:1,2012-05-04T08:30:00Z,30.2791,-87.5561,0.0,2.22,138.7,-9999.0,'1111122,1111122,1111122' 
DISL,ioos:station:DISL:PPTA:1,2012-05-04T09:00:00Z,30.2791,-87.5561,0.0,1.45,134.7,-9999.0,'1111122,1111122,1111122' 
DISL,ioos:station:DISL:PPTA:1,2012-05-04T09:30:00Z,30.2791,-87.5561,0.0,0.48,154.8,-9999.0,'1111122,1111122,1111122' 
DISL,ioos:station:DISL:PPTA:1,2012-05-04T10:00:00Z,30.2791,-87.5561,0.0,1.37,163.9,-9999.0,'1111122,1111122,1111122' 
DISL,ioos:station:DISL:PPTA:1,2012-05-04T10:30:00Z,30.2791,-87.5561,0.0,0.6,148.4,-9999.0,'1111122,1111122,1111122' 
DISL,ioos:station:DISL:PPTA:1,2012-05-04T11:00:00Z,30.2791,-87.5561,0.0,0.72,213.3,-9999.0,'1111122,1111122,1111122' 
DISL,ioos:station:DISL:PPTA:1,2012-05-04T11:30:00Z,30.2791,-87.5561,0.0,1.76,193.1,-9999.0,'1111122,1111122,1111122' 
DISL,ioos:station:DISL:PPTA:1,2012-05-04T12:00:00Z,30.2791,-87.5561,0.0,2.8,166.8,-9999.0,'1111122,1111122,1111122' 
DISL,ioos:station:DISL:PPTA:1,2012-05-04T12:30:00Z,30.2791,-87.5561,0.0,1.69,171.8,-9999.0,'1111122,1111122,1111122' 
DISL,ioos:station:DISL:PPTA:1,2012-05-04T13:00:00Z,30.2791,-87.5561,0.0,2.28,294.5,-9999.0,'1111122,1111122,1111122' 
DISL,ioos:station:DISL:PPTA:1,2012-05-04T14:00:00Z,30.2791,-87.5561,0.0,1.44,327.4,-9999.0,'1111122,1111122,1111122' 
DISL,ioos:station:DISL:PPTA:1,2012-05-04T14:30:00Z,30.2791,-87.5561,0.0,1.63,356.9,-9999.0,'1111122,1111122,1111122' 
DISL,ioos:station:DISL:PPTA:1,2012-05-04T15:00:00Z,30.2791,-87.5561,0.0,0.73,41.64,-9999.0,'1111122,1111122,1111122' 
DISL,ioos:station:DISL:PPTA:1,2012-05-04T15:30:00Z,30.2791,-87.5561,0.0,2.45,52.91,-9999.0,'1111122,1111122,1111122' 
DISL,ioos:station:DISL:PPTA:1,2012-05-04T16:00:00Z,30.2791,-87.5561,0.0,0.68,75.69,-9999.0,'1111122,1111122,1111122' 
DISL,ioos:station:DISL:PPTA:1,2012-05-04T16:30:00Z,30.2791,-87.5561,0.0,2.34,96.6,-9999.0,'1111122,1111122,1111122' 
DISL,ioos:station:DISL:PPTA:1,2012-05-04T17:00:00Z,30.2791,-87.5561,0.0,0.42,103.6,-9999.0,'1111122,1111122,1111122' 
DISL,ioos:station:DISL:PPTA:1,2012-05-04T17:30:00Z,30.2791,-87.5561,0.0,0.61,93.6,-9999.0,'1111122,1111122,1111122' 
DISL,ioos:station:DISL:PPTA:1,2012-05-04T18:00:00Z,30.2791,-87.5561,0.0,4.34,101.4,-9999.0,'1111122,1111122,1111122' 
DISL,ioos:station:DISL:PPTA:1,2012-05-04T18:30:00Z,30.2791,-87.5561,0.0,1.08,101.9,-9999.0,'1111122,1111122,1111122' 
DISL,ioos:station:DISL:PPTA:1,2012-05-04T19:00:00Z,30.2791,-87.5561,0.0,4.21,112.2,-9999.0,'1111122,1111122,1111122' 
DISL,ioos:station:DISL:PPTA:1,2012-05-04T19:30:00Z,30.2791,-87.5561,0.0,3.12,107.5,-9999.0,'1111122,1111122,1111122' 
DISL,ioos:station:DISL:PPTA:1,2012-05-04T20:00:00Z,30.2791,-87.5561,0.0,4.05,117.8,-9999.0,'1111122,1111122,1111122' 
DISL,ioos:station:DISL:PPTA:1,2012-05-04T20:30:00Z,30.2791,-87.5561,0.0,3.96,116.8,-9999.0,'1111122,1111122,1111122' 
DISL,ioos:station:DISL:PPTA:1,2012-05-04T21:00:00Z,30.2791,-87.5561,0.0,3.13,115.0,-9999.0,'1111122,1111122,1111122' 
DISL,ioos:station:DISL:PPTA:1,2012-05-04T21:30:00Z,30.2791,-87.5561,0.0,3.73,110.0,-9999.0,'1111122,1111122,1111122' 
DISL,ioos:station:DISL:PPTA:1,2012-05-04T22:00:00Z,30.2791,-87.5561,0.0,2.58,121.3,-9999.0,'1111122,1111122,1111122' 
DISL,ioos:station:DISL:PPTA:1,2012-05-04T22:30:00Z,30.2791,-87.5561,0.0,0.0,0.0,-9999.0,'1114422,1114422,1111122' 
DISL,ioos:station:DISL:PPTA:1,2012-05-04T23:00:00Z,30.2791,-87.5561,0.0,1.32,120.5,-9999.0,'1111122,1111122,1111122' 
DISL,ioos:station:DISL:PPTA:1,2012-05-04T23:30:00Z,30.2791,-87.5561,0.0,0.0,0.0,-9999.0,'1114422,1114422,1111122' 
DISL,ioos:station:DISL:PPTA:1,2012-05-05T00:00:00Z,30.2791,-87.5561,0.0,2.92,129.0,-9999.0,'1111122,1111122,1111122' 
DISL,ioos:station:DISL:PPTA:1,2012-05-05T00:30:00Z,30.2791,-87.5561,0.0,2.09,134.0,-9999.0,'1111122,1111122,1111122' 
DISL,ioos:station:DISL:PPTA:1,2012-05-05T01:00:00Z,30.2791,-87.5561,0.0,0.0,0.0,-9999.0,'1114422,1114422,1111122' 
DISL,ioos:station:DISL:PPTA:1,2012-05-05T01:30:00Z,30.2791,-87.5561,0.0,0.0,0.0,-9999.0,'1114422,1114422,1111122' 
DISL,ioos:station:DISL:PPTA:1,2012-05-05T02:00:00Z,30.2791,-87.5561,0.0,0.0,0.0,-9999.0,'1114422,1114422,1111122' 
DISL,ioos:station:DISL:PPTA:1,2012-05-05T02:30:00Z,30.2791,-87.5561,0.0,0.0,0.0,-9999.0,'1114422,1114422,1111122' 
DISL,ioos:station:DISL:PPTA:1,2012-05-05T03:00:00Z,30.2791,-87.5561,0.0,0.0,0.0,-9999.0,'1114422,1114422,1111122' 
DISL,ioos:station:DISL:PPTA:1,2012-05-05T03:30:00Z,30.2791,-87.5561,0.0,0.0,0.0,-9999.0,'1114422,1114422,1111122' 
DISL,ioos:station:DISL:PPTA:1,2012-05-05T04:00:00Z,30.2791,-87.5561,0.0,0.0,0.0,-9999.0,'1114422,1114422,1111122' 
DISL,ioos:station:DISL:PPTA:1,2012-05-05T04:30:00Z,30.2791,-87.5561,0.0,0.0,0.0,-9999.0,'1114422,1114422,1111122' 
DISL,ioos:station:DISL:PPTA:1,2012-05-05T05:00:00Z,30.2791,-87.5561,0.0,2.86,120.9,-9999.0,'1111122,1111122,1111122' 
DISL,ioos:station:DISL:PPTA:1,2012-05-05T05:30:00Z,30.2791,-87.5561,0.0,3.27,130.3,-9999.0,'1111122,1111122,1111122' 